Regional Weather Roundup
Issued by NWS

Home | Current Version | Previous Version | Graphics & Text | Print | Product List | Glossary On
Versions: 1 2 3 4 5 6 7 8 9 10 11 12 13 14 15 16 17 18 19 20 21 22 23 24 25 26 27 28 29 30 31 32 33 34 35 36 37 38 39 40 41 42 43 44 45 46 47 48 49 50
000
ASUS45 KBOU 272107
RWRCO

WEATHER ROUNDUP FOR COLORADO
NATIONAL WEATHER SERVICE DENVER/BOULDER CO
200 PM MST THU NOV 27 2014

NOTE: "FAIR" INDICATES FEW OR NO CLOUDS BELOW 12000 FEET WITH NO
SIGNIFICANT WEATHER AND/OR OBSTRUCTIONS TO VISIBILITY.

COZ001>005-013-030-031-272200-
...NORTHWEST COLORADO...

CITY           SKY/WX    TMP DP  RH WIND       PRES   REMARKS
CRAIG          PTSUNNY   46  27  47 NE6       30.29F
HAYDEN         PTSUNNY   41  25  52 SE5       30.30F
MEEKER         MOSUNNY   51  26  37 S7        30.31F
MOUNT WERNER   NOT AVBL
STEAMBOAT SPGS PTSUNNY   35  27  73 CALM      30.31F
WALDEN         CLOUDY    41  19  42 SW18G32   30.29S
$$

COZ006>008-011-272200-
...WEST CENTRAL VALLEYS...

CITY           SKY/WX    TMP DP  RH WIND       PRES   REMARKS
GRAND JUNCTION SUNNY     52  26  36 NW5       30.34F
MONTROSE       SUNNY     55  23  28 W5        30.36F
EAGLE          MOSUNNY   54  23  30 SW20G26   30.34F
RIFLE          SUNNY     46  27  47 CALM      30.36F
DELTA          SUNNY     57  26  30 W3        30.34F
NUCLA          SUNNY     52  25  35 CALM      30.40F
$$

COZ017>023-064>068-272200-
...SOUTHWEST COLORADO...

CITY           SKY/WX    TMP DP  RH WIND       PRES   REMARKS
DURANGO        SUNNY     54  20  26 SW8       30.38F
CORTEZ         SUNNY     56  23  27 SW9       30.37F
PAGOSA SPRINGS SUNNY     55  17  22 S6        30.39F
TELLURIDE      SUNNY     50  15  25 CALM      30.48F
WOLF CREEK PAS SUNNY     39   9  28 MISG      30.54F
$$

COZ009-010-012-014-032>034-037-058>063-272200-
...CENTRAL COLORADO...

CITY           SKY/WX    TMP DP  RH WIND       PRES   REMARKS
ASPEN          SUNNY     43  25  49 N6        30.37F
BUENA VISTA    SUNNY     55  13  19 W12G21    30.32S
COPPER MTN     SUNNY     36  18  48 W21G37    30.46F
BERTHOUD PASS  NOT AVBL
COTTONWOOD PAS SUNNY     46  12  25 N9        30.37S
GUNNISON       SUNNY     36  21  55 N3        30.47F
KREMMLING      MOSUNNY   50  19  29 W9G16     30.33F
LEADVILLE      SUNNY     42  16  34 NW13G20   30.39F
MONARCH PASS   SUNNY     28  18  64 MISG      30.57F
SALIDA         SUNNY     59  12  15 SW17G29   30.37F
SUNLIGHT       MOSUNNY   34  27  75 S3        30.47F
WILKERSON PASS MOSUNNY   37  10  32 W21G36    30.41F
$$

COZ069>075-272200-
...SAN LUIS VALLEY/SANGRE DE CRISTO MOUNTAINS...

CITY           SKY/WX    TMP DP  RH WIND       PRES   REMARKS
ALAMOSA        SUNNY     51  18  27 S6        30.37F
LA VETA PASS   PTSUNNY   45  14  29 S10G16    30.43F
SAGUACHE       SUNNY     46  21  36 S6        30.40F
$$

COZ035-036-038>040-272200-
...NORTHERN COLORADO FRONT RANGE...

CITY           SKY/WX    TMP DP  RH WIND       PRES   REMARKS
DENVER INTL AP CLOUDY    63  17  17 W22G28    30.12F
DMNS CITY PARK   N/A     63  20  19 SW2       30.13F
AURORA         PTSUNNY   62  17  17 NW8       30.16F
FRONT RANGE AP NOT AVBL
ERIE MUNI ARPT CLOUDY    65  14  14 S5G21     30.11F
BOULDER MUN AP CLOUDY    63  19  19 E6        30.11F
CENTENNIAL     CLOUDY    63  14  15 N7        30.16S
BROOMFIELD     PTSUNNY   63  18  17 W14G29    30.15
FORT COLLINS   CLOUDY    57  28  33 SE9       30.10F
LONGMONT       CLOUDY    65  19  16 SW7       30.11F
$$

COZ041-046-047-076>085-087-088-272200-
...PIKES PEAK/PALMER DIVIDE AND SOUTHERN FOOTHILLS...

CITY           SKY/WX    TMP DP  RH WIND       PRES   REMARKS
COLO. SPRINGS  CLOUDY    64  12  13 S13       30.19F
A. F. ACADEMY  CLOUDY    63   9  12 W8G21     30.19F
ELLICOTT       NOT AVBL
FALCON         NOT AVBL
FORT CARSON    CLOUDY    66  14  13 S16       30.17F
LIMON          CLOUDY    64  13  13 NW13      30.14F
MONUMENT HILL  CLOUDY    59  12  15 SW6       30.22S
TRINIDAD       CLOUDY    61  30  31 S6        30.21F
$$

COZ042>045-048>051-090-091-272200-
...NORTHEAST COLORADO...

CITY           SKY/WX    TMP DP  RH WIND       PRES   REMARKS
GREELEY ARPT   CLOUDY    63  27  25 W12       30.10F
AKRON          CLOUDY    51  29  42 SW14      30.09F
BURLINGTON     MOSUNNY   64  24  21 SW14      30.10F
WRAY           PTSUNNY   66  23  19 W9        30.06F
STERLING       CLOUDY    43  34  70 S5        30.07F
HOLYOKE        PTSUNNY   55  41  58 W6        30.06F
FORT MORGAN    CLOUDY    45  32  59 S3        30.09F
$$

COZ086-089-092>099-272200-
...SOUTHEAST COLORADO...

CITY           SKY/WX    TMP DP  RH WIND       PRES   REMARKS
PUEBLO         PTSUNNY   71  14  11 NW12      30.13F
LA JUNTA       MOSUNNY   68  25  19 W9        30.13F
LAMAR          SUNNY     63  29  27 NE6       30.12F
SPRINGFIELD      N/A     66  23  19 SW12      30.14F
$$



USA.gov is the U.S. government's official web portal to all federal, state and local government web resources and services.